GLO1002 SBSP-SBRJ

Flight info

Callsign GLO1002
Flight time 0h 38m
Altitude 27000
Route NIBRU UZ171 KEVUN
Aircraft B738/M-SDE2E3FGHIRWXY/LB1

Departure

Time 2026-05-04 12:16
Airport Congonhas–Deputado Freitas Nobre Airport (SBSP)

Arrival

Time 2026-05-04 12:55
Airport Santos Dumont Airport (SBRJ)
Time Latitude Longitude Altitude Speed Heading
2026-05-04 11:50 -23.62479 -46.65984 2599 ft 0 kts 237°
2026-05-04 12:09 -23.62476 -46.65979 2599 ft 3 kts 237°
2026-05-04 12:09 -23.62466 -46.65959 2599 ft 3 kts 265°
2026-05-04 12:09 -23.62470 -46.65943 2600 ft 2 kts 317°
2026-05-04 12:09 -23.62487 -46.65927 2600 ft 3 kts 325°
2026-05-04 12:10 -23.62506 -46.65914 2600 ft 3 kts 328°
2026-05-04 12:10 -23.62509 -46.65911 2600 ft 0 kts 327°
2026-05-04 12:12 -23.62506 -46.65913 2600 ft 2 kts 339°
2026-05-04 12:13 -23.62474 -46.65926 2600 ft 8 kts 339°
2026-05-04 12:14 -23.62060 -46.66134 2587 ft 11 kts 19°
2026-05-04 12:15 -23.62043 -46.66077 2593 ft 6 kts 144°
2026-05-04 12:15 -23.62048 -46.66073 2589 ft 1 kts 144°
2026-05-04 12:15 -23.62058 -46.66065 2591 ft 2 kts 144°
2026-05-04 12:15 -23.62092 -46.66041 2593 ft 26 kts 148°
2026-05-04 12:16 -23.62480 -46.65774 2603 ft 104 kts 147°
2026-05-04 12:16 -23.63263 -46.65211 2723 ft 156 kts 144°
2026-05-04 12:16 -23.64210 -46.64513 3465 ft 168 kts 142°
2026-05-04 12:16 -23.65039 -46.63667 4370 ft 166 kts 115°
2026-05-04 12:17 -23.65558 -46.62478 4971 ft 190 kts 114°
2026-05-04 12:17 -23.66259 -46.61089 5263 ft 224 kts 115°
2026-05-04 12:17 -23.67021 -46.59487 5520 ft 250 kts 116°
2026-05-04 12:17 -23.67840 -46.57797 5981 ft 267 kts 116°
2026-05-04 12:18 -23.68750 -46.55946 6302 ft 288 kts 117°
2026-05-04 12:18 -23.69719 -46.54003 7112 ft 292 kts 118°
2026-05-04 12:18 -23.70691 -46.52060 8098 ft 292 kts 119°
2026-05-04 12:18 -23.71633 -46.50074 9051 ft 298 kts 110°
2026-05-04 12:19 -23.71915 -46.47867 9938 ft 301 kts 87°
2026-05-04 12:19 -23.71693 -46.45573 10681 ft 309 kts 82°
2026-05-04 12:19 -23.71343 -46.43165 10996 ft 332 kts 81°
2026-05-04 12:19 -23.70944 -46.40637 11588 ft 342 kts 81°
2026-05-04 12:20 -23.70541 -46.38057 12366 ft 347 kts 81°
2026-05-04 12:20 -23.70142 -46.35431 13140 ft 353 kts 82°
2026-05-04 12:20 -23.69748 -46.32761 13967 ft 359 kts 82°
2026-05-04 12:20 -23.69354 -46.30044 14708 ft 365 kts 82°
2026-05-04 12:21 -23.68957 -46.27284 15464 ft 371 kts 82°
2026-05-04 12:21 -23.68560 -46.24512 16220 ft 377 kts 82°
2026-05-04 12:21 -23.68153 -46.21666 16958 ft 383 kts 82°
2026-05-04 12:21 -23.67738 -46.18769 17688 ft 389 kts 81°
2026-05-04 12:22 -23.67316 -46.15826 18416 ft 395 kts 81°
2026-05-04 12:22 -23.66886 -46.12836 19038 ft 401 kts 81°
2026-05-04 12:22 -23.66452 -46.09817 19721 ft 405 kts 81°
2026-05-04 12:22 -23.66014 -46.06762 20405 ft 409 kts 81°
2026-05-04 12:23 -23.65571 -46.03680 21064 ft 414 kts 81°
2026-05-04 12:23 -23.65121 -46.00552 21679 ft 419 kts 82°
2026-05-04 12:23 -23.64667 -45.97394 22324 ft 424 kts 82°
2026-05-04 12:23 -23.64207 -45.94199 22909 ft 430 kts 82°
2026-05-04 12:24 -23.63739 -45.90961 23522 ft 434 kts 82°
2026-05-04 12:24 -23.63272 -45.87727 24106 ft 437 kts 82°
2026-05-04 12:24 -23.62797 -45.84447 24716 ft 438 kts 82°
2026-05-04 12:24 -23.62319 -45.81158 25377 ft 438 kts 82°
2026-05-04 12:25 -23.61843 -45.77882 26033 ft 438 kts 82°
2026-05-04 12:25 -23.61521 -45.75665 26447 ft 439 kts 82°
2026-05-04 12:25 -23.61043 -45.72382 27026 ft 441 kts 82°
2026-05-04 12:25 -23.60401 -45.67978 27208 ft 443 kts 82°
2026-05-04 12:26 -23.60075 -45.65743 27241 ft 442 kts 82°
2026-05-04 12:26 -23.59595 -45.62471 27231 ft 442 kts 82°
2026-05-04 12:26 -23.59110 -45.59164 27245 ft 442 kts 82°
2026-05-04 12:26 -23.58624 -45.55852 27234 ft 442 kts 81°
2026-05-04 12:27 -23.58138 -45.52545 27239 ft 442 kts 81°
2026-05-04 12:27 -23.57650 -45.49227 27240 ft 442 kts 81°
2026-05-04 12:27 -23.57146 -45.45918 27239 ft 443 kts 79°
2026-05-04 12:27 -23.56517 -45.42629 27240 ft 443 kts 77°
2026-05-04 12:28 -23.55813 -45.39359 27242 ft 443 kts 76°
2026-05-04 12:28 -23.55087 -45.36097 27235 ft 443 kts 76°
2026-05-04 12:28 -23.54362 -45.32827 27233 ft 442 kts 76°
2026-05-04 12:28 -23.53650 -45.29574 27246 ft 441 kts 76°
2026-05-04 12:29 -23.52949 -45.26316 27241 ft 442 kts 77°
2026-05-04 12:29 -23.52261 -45.23094 27225 ft 442 kts 76°
2026-05-04 12:29 -23.51563 -45.19818 26836 ft 444 kts 77°
2026-05-04 12:29 -23.50869 -45.16561 26490 ft 440 kts 76°
2026-05-04 12:30 -23.50176 -45.13308 26073 ft 438 kts 76°
2026-05-04 12:30 -23.49489 -45.10085 25660 ft 435 kts 76°
2026-05-04 12:30 -23.48806 -45.06882 25253 ft 433 kts 76°
2026-05-04 12:30 -23.48133 -45.03733 24848 ft 430 kts 76°
2026-05-04 12:31 -23.47454 -45.00560 24427 ft 428 kts 76°
2026-05-04 12:31 -23.46779 -44.97412 24050 ft 425 kts 76°
2026-05-04 12:31 -23.46105 -44.94275 23582 ft 424 kts 76°
2026-05-04 12:31 -23.45426 -44.91185 23305 ft 416 kts 76°
2026-05-04 12:32 -23.44748 -44.88135 22907 ft 413 kts 76°
2026-05-04 12:32 -23.43401 -44.82099 22085 ft 407 kts 76°
2026-05-04 12:32 -23.42735 -44.79114 21713 ft 404 kts 75°
2026-05-04 12:33 -23.42075 -44.76155 21304 ft 401 kts 75°
2026-05-04 12:33 -23.41426 -44.73246 20893 ft 399 kts 75°
2026-05-04 12:33 -23.40771 -44.70311 20506 ft 397 kts 75°
2026-05-04 12:33 -23.40121 -44.67395 20103 ft 395 kts 75°
2026-05-04 12:34 -23.39473 -44.64496 19703 ft 394 kts 75°
2026-05-04 12:34 -23.38825 -44.61599 19304 ft 392 kts 75°
2026-05-04 12:34 -23.38182 -44.58723 18894 ft 391 kts 75°
2026-05-04 12:34 -23.37538 -44.55850 18490 ft 390 kts 75°
2026-05-04 12:35 -23.36897 -44.52990 18045 ft 388 kts 75°
2026-05-04 12:35 -23.36259 -44.50145 17633 ft 385 kts 75°
2026-05-04 12:35 -23.35624 -44.47317 17235 ft 382 kts 75°
2026-05-04 12:35 -23.34995 -44.44521 16842 ft 379 kts 75°
2026-05-04 12:36 -23.34349 -44.41794 16460 ft 375 kts 71°
2026-05-04 12:36 -23.33397 -44.39180 16142 ft 369 kts 64°
2026-05-04 12:36 -23.32294 -44.36668 15766 ft 366 kts 62°
2026-05-04 12:36 -23.31162 -44.34198 15390 ft 363 kts 62°
2026-05-04 12:37 -23.30053 -44.31756 15007 ft 354 kts 63°
2026-05-04 12:37 -23.28990 -44.29371 14631 ft 346 kts 63°
2026-05-04 12:37 -23.27969 -44.27043 14271 ft 338 kts 64°
2026-05-04 12:37 -23.26975 -44.24755 13896 ft 331 kts 64°
2026-05-04 12:38 -23.26004 -44.22507 13520 ft 328 kts 64°
2026-05-04 12:38 -23.25036 -44.20262 13156 ft 327 kts 64°
2026-05-04 12:38 -23.24073 -44.18028 12797 ft 325 kts 64°
2026-05-04 12:38 -23.23129 -44.15836 12450 ft 324 kts 64°
2026-05-04 12:39 -23.22173 -44.13619 12098 ft 323 kts 64°
2026-05-04 12:39 -23.21221 -44.11411 11747 ft 322 kts 64°
2026-05-04 12:39 -23.20271 -44.09211 11398 ft 321 kts 63°
2026-05-04 12:39 -23.19315 -44.07035 11170 ft 316 kts 62°
2026-05-04 12:40 -23.18336 -44.04906 10992 ft 314 kts 62°
2026-05-04 12:40 -23.17354 -44.02787 10824 ft 314 kts 62°
2026-05-04 12:40 -23.16374 -44.00668 10656 ft 313 kts 62°
2026-05-04 12:40 -23.15417 -43.98564 10482 ft 307 kts 63°
2026-05-04 12:41 -23.14516 -43.96477 10314 ft 301 kts 64°
2026-05-04 12:41 -23.13651 -43.94440 10155 ft 295 kts 64°
2026-05-04 12:41 -23.12799 -43.92430 9979 ft 290 kts 63°
2026-05-04 12:41 -23.11957 -43.90446 9826 ft 288 kts 63°
2026-05-04 12:42 -23.11113 -43.88468 9674 ft 289 kts 63°
2026-05-04 12:42 -23.10265 -43.86482 9528 ft 291 kts 63°
2026-05-04 12:42 -23.09423 -43.84513 9373 ft 291 kts 63°
2026-05-04 12:42 -23.08572 -43.82524 9217 ft 290 kts 63°
2026-05-04 12:43 -23.07722 -43.80540 9057 ft 289 kts 63°
2026-05-04 12:43 -23.06874 -43.78561 8906 ft 288 kts 63°
2026-05-04 12:43 -23.06029 -43.76588 8741 ft 288 kts 63°
2026-05-04 12:43 -23.05184 -43.74619 8600 ft 287 kts 63°
2026-05-04 12:44 -23.04341 -43.72656 8400 ft 287 kts 63°
2026-05-04 12:44 -23.03491 -43.70676 8116 ft 288 kts 63°
2026-05-04 12:44 -23.02645 -43.68720 7845 ft 285 kts 63°
2026-05-04 12:44 -23.01797 -43.66780 7589 ft 283 kts 63°
2026-05-04 12:45 -23.00956 -43.64861 7336 ft 280 kts 62°
2026-05-04 12:45 -23.00123 -43.62958 7078 ft 278 kts 62°
2026-05-04 12:45 -22.99296 -43.61073 6907 ft 273 kts 61°
2026-05-04 12:45 -22.98481 -43.59219 6746 ft 272 kts 62°
2026-05-04 12:46 -22.97668 -43.57374 6586 ft 270 kts 62°
2026-05-04 12:46 -22.96867 -43.55551 6402 ft 271 kts 62°
2026-05-04 12:46 -22.96055 -43.53706 6242 ft 271 kts 62°
2026-05-04 12:46 -22.95244 -43.51866 6078 ft 270 kts 62°
2026-05-04 12:47 -22.94439 -43.50016 5867 ft 271 kts 63°
2026-05-04 12:47 -22.93653 -43.48162 5606 ft 269 kts 63°
2026-05-04 12:47 -22.92883 -43.46327 5341 ft 265 kts 64°
2026-05-04 12:47 -22.92121 -43.44520 5131 ft 262 kts 64°
2026-05-04 12:48 -22.91361 -43.42729 4853 ft 260 kts 65°
2026-05-04 12:48 -22.90610 -43.40957 4598 ft 257 kts 65°
2026-05-04 12:48 -22.89870 -43.39209 4358 ft 253 kts 65°
2026-05-04 12:48 -22.89139 -43.37494 4115 ft 246 kts 66°
2026-05-04 12:49 -22.88456 -43.35833 3881 ft 236 kts 71°
2026-05-04 12:49 -22.88298 -43.34140 3773 ft 217 kts 92°
2026-05-04 12:49 -22.88360 -43.32583 3642 ft 201 kts 91°
2026-05-04 12:49 -22.88410 -43.31121 3539 ft 186 kts 91°
2026-05-04 12:50 -22.88456 -43.29774 3425 ft 172 kts 91°
2026-05-04 12:50 -22.88499 -43.28504 3135 ft 172 kts 90°
2026-05-04 12:50 -22.88541 -43.27222 2845 ft 166 kts 90°
2026-05-04 12:50 -22.88680 -43.25991 2587 ft 163 kts 108°
2026-05-04 12:51 -22.89119 -43.24905 2411 ft 153 kts 110°
2026-05-04 12:51 -22.89515 -43.23851 2220 ft 151 kts 109°
2026-05-04 12:51 -22.89907 -43.22800 2076 ft 147 kts 109°
2026-05-04 12:51 -22.90284 -43.21791 1846 ft 140 kts 108°
2026-05-04 12:52 -22.90710 -43.20881 1732 ft 134 kts 123°
2026-05-04 12:52 -22.91369 -43.20149 1553 ft 138 kts 140°
2026-05-04 12:52 -22.92211 -43.19638 1383 ft 141 kts 154°
2026-05-04 12:52 -22.93166 -43.19406 1158 ft 140 kts 176°
2026-05-04 12:53 -22.94113 -43.19199 1002 ft 141 kts 143°
2026-05-04 12:53 -22.94670 -43.18382 880 ft 136 kts 103°
2026-05-04 12:53 -22.94662 -43.17381 698 ft 130 kts 73°
2026-05-04 12:53 -22.94208 -43.16566 537 ft 126 kts 39°
2026-05-04 12:54 -22.93430 -43.16120 356 ft 128 kts
2026-05-04 12:54 -22.92522 -43.16204 209 ft 134 kts 355°
2026-05-04 12:54 -22.91597 -43.16240 33 ft 131 kts 353°
2026-05-04 12:54 -22.90839 -43.16302 25 ft 53 kts 356°
2026-05-04 12:55 -22.90630 -43.16312 26 ft 21 kts 359°
2026-05-04 12:55 -22.90560 -43.16314 25 ft 10 kts 359°
2026-05-04 12:55 -22.90498 -43.16341 23 ft 10 kts 306°
2026-05-04 12:55 -22.90493 -43.16424 22 ft 13 kts 269°
2026-05-04 12:56 -22.90499 -43.16507 21 ft 12 kts 265°
2026-05-04 12:56 -22.90515 -43.16557 22 ft 7 kts 221°
2026-05-04 12:56 -22.90567 -43.16557 21 ft 9 kts 170°
2026-05-04 12:56 -22.90641 -43.16553 21 ft 12 kts 178°
2026-05-04 12:57 -22.90739 -43.16549 23 ft 16 kts 177°
2026-05-04 12:57 -22.90857 -43.16550 21 ft 18 kts 176°
2026-05-04 12:57 -22.90937 -43.16544 23 ft 9 kts 176°
2026-05-04 12:57 -22.91009 -43.16538 23 ft 12 kts 176°
2026-05-04 12:58 -22.91104 -43.16524 21 ft 15 kts 169°
2026-05-04 12:58 -22.91182 -43.16515 23 ft 7 kts 176°
2026-05-04 12:58 -22.91227 -43.16512 23 ft 6 kts 179°
2026-05-04 12:58 -22.91245 -43.16544 21 ft 3 kts 271°
2026-05-04 12:59 -22.91245 -43.16566 21 ft 1 kts 268°
2026-05-04 12:59 -22.91245 -43.16580 21 ft 0 kts 267°